Princeton, MN

11:16 AM CDT on September 29, 2016 (GMT -0500)
Princeton Municipal

Weather History for KPNM - April, 2014

Change the Weather History Date:

Friday, April 18, 2014

  Actual Average Record
Temperature  
Mean Temperature 32 °F -  
Max Temperature 46 °F 56 °F 84 °F (2004)
Min Temperature 19 °F 32 °F 19 °F (2014)
Degree Days  
Heating Degree Days 32    
Moisture  
Dew Point 24 °F    
Average Humidity 66    
Maximum Humidity 93    
Minimum Humidity 46    
Precipitation  
Precipitation 0.00 in - - ()
Sea Level Pressure  
Sea Level Pressure 30.30 in    
Wind  
Wind Speed 4 mph (East)    
Max Wind Speed 13 mph    
Max Gust Speed 21 mph    
Visibility 9 miles    
Events      
Averages and records for this station are not official NWS values.
T = Trace of Precipitation, MM = Missing Value Source: NWS Daily Summary

Daily Weather History Graph

Daily Weather History Graph

Search for Another Location

Airport or City:

Trip Planner

Search our weather history database for the weather conditions in past years. The results will help you decide how hot, cold, wet, or windy it might be!

Date:

Astronomy

Apr. 18, 2014 Rise Set
Actual Time 6:23 AM CDT 8:04 PM CDT
Civil Twilight 5:52 AM CDT 8:36 PM CDT
Nautical Twilight 5:14 AM CDT 9:14 PM CDT
Astronomical Twilight 4:33 AM CDT 9:55 PM CDT
Moon 11:57 PM CDT (4/18) 8:39 AM CDT (4/18)
Length of Visible Light 14h 43m
Length of Day
13h 41m
Waning Gibbous, 87% of the Moon is Illuminated
Apr 18
Waning Gibbous
Apr 22
Last Quarter
Apr 29
New
May 6
First Quarter
May 14
Full

Hourly Weather History & Observations

Time (CDT) Temp. Windchill Dew Point Humidity Pressure Visibility Wind Dir Wind Speed Gust Speed Precip Events Conditions
12:13 AM 26.6 °F - 21.2 °F 80% 30.30 in 10.0 mi Calm Calm - N/A   Clear
12:33 AM 24.8 °F - 21.2 °F 86% 30.31 in 10.0 mi Calm Calm - N/A   Clear
12:53 AM 24.8 °F - 21.2 °F 86% 30.31 in 10.0 mi Calm Calm - N/A   Clear
1:13 AM 24.8 °F - 21.2 °F 86% 30.31 in 10.0 mi Calm Calm - N/A   Clear
1:33 AM 24.8 °F - 21.2 °F 86% 30.31 in 10.0 mi Calm Calm - N/A   Clear
1:53 AM 24.8 °F - 21.2 °F 86% 30.31 in 10.0 mi Calm Calm - N/A   Clear
2:13 AM 24.8 °F - 21.2 °F 86% 30.32 in 10.0 mi Calm Calm - N/A   Clear
2:33 AM 24.8 °F - 21.2 °F 86% 30.31 in 7.0 mi Calm Calm - N/A   Clear
2:53 AM 21.2 °F - 19.4 °F 93% 30.31 in 7.0 mi Calm Calm - N/A   Clear
3:13 AM 21.2 °F - 19.4 °F 93% 30.31 in 7.0 mi Calm Calm - N/A   Clear
3:33 AM 21.2 °F - 19.4 °F 93% 30.31 in 4.0 mi Calm Calm - N/A   Clear
3:53 AM 21.2 °F - 19.4 °F 93% 30.31 in 3.0 mi Calm Calm - N/A   Scattered Clouds
4:13 AM 21.2 °F - 19.4 °F 93% 30.32 in 5.0 mi Calm Calm - N/A   Mostly Cloudy
4:33 AM 21.2 °F - 19.4 °F 93% 30.32 in 7.0 mi Calm Calm - N/A   Scattered Clouds
4:53 AM 21.2 °F - 19.4 °F 93% 30.32 in 7.0 mi Calm Calm - N/A   Mostly Cloudy
5:13 AM 21.2 °F - 19.4 °F 93% 30.32 in 7.0 mi Calm Calm - N/A   Mostly Cloudy
5:33 AM 19.4 °F - 17.6 °F 93% 30.32 in 10.0 mi Calm Calm - N/A   Mostly Cloudy
5:53 AM 21.2 °F - 19.4 °F 93% 30.33 in 10.0 mi Calm Calm - N/A   Overcast
6:13 AM 23.0 °F - 19.4 °F 86% 30.33 in 7.0 mi Calm Calm - N/A   Overcast
6:33 AM 24.8 °F - 21.2 °F 86% 30.33 in 7.0 mi Calm Calm - N/A   Overcast
6:53 AM 24.8 °F - 21.2 °F 86% 30.33 in 7.0 mi Calm Calm - N/A   Overcast
7:13 AM 24.8 °F - 23.0 °F 93% 30.35 in 5.0 mi Calm Calm - N/A   Overcast
7:33 AM 26.6 °F 22.6 °F 24.8 °F 93% 30.35 in 5.0 mi ESE 3.5 mph - N/A   Overcast
7:53 AM 28.4 °F - 24.8 °F 86% 30.36 in 7.0 mi Calm Calm - N/A   Overcast
8:13 AM 28.4 °F - 24.8 °F 86% 30.36 in 10.0 mi Calm Calm - N/A   Overcast
8:33 AM 30.2 °F 26.7 °F 24.8 °F 80% 30.36 in 10.0 mi ESE 3.5 mph - N/A   Overcast
8:53 AM 32.0 °F - 24.8 °F 75% 30.37 in 10.0 mi Calm Calm - N/A   Mostly Cloudy
9:13 AM 33.8 °F 29.6 °F 24.8 °F 70% 30.37 in 10.0 mi East 4.6 mph - N/A   Scattered Clouds
9:53 AM 37.4 °F 33.8 °F 24.8 °F 60% 30.36 in 10.0 mi East 4.6 mph - N/A   Scattered Clouds
10:13 AM 37.4 °F 32.1 °F 26.6 °F 65% 30.36 in 10.0 mi ESE 6.9 mph - N/A   Mostly Cloudy
10:33 AM 39.2 °F 35.0 °F 26.6 °F 61% 30.36 in 10.0 mi ESE 5.8 mph - N/A   Scattered Clouds
10:53 AM 39.2 °F 35.0 °F 26.6 °F 61% 30.37 in 10.0 mi East 5.8 mph - N/A   Clear
11:13 AM 41.0 °F 36.4 °F 26.6 °F 57% 30.37 in 10.0 mi East 6.9 mph - N/A   Clear
11:33 AM 42.8 °F 39.3 °F 26.6 °F 53% 30.37 in 10.0 mi East 5.8 mph - N/A   Scattered Clouds
11:53 AM 42.8 °F 38.6 °F 26.6 °F 53% 30.37 in 10.0 mi East 6.9 mph - N/A   Clear
12:13 PM 42.8 °F 38.0 °F 26.6 °F 53% 30.36 in 10.0 mi SE 8.1 mph - N/A   Clear
12:34 PM 44.6 °F 40.2 °F 26.6 °F 49% 30.36 in 10.0 mi SE 8.1 mph - N/A   Scattered Clouds
12:53 PM 44.6 °F 39.7 °F 26.6 °F 49% 30.36 in 10.0 mi SE 9.2 mph - N/A   Clear
1:13 PM 44.6 °F 40.2 °F 26.6 °F 49% 30.35 in 10.0 mi ESE 8.1 mph - N/A   Clear
1:34 PM 44.6 °F 38.8 °F 24.8 °F 46% 30.35 in 10.0 mi East 11.5 mph 17.3 mph N/A   Clear
1:53 PM 44.6 °F 39.2 °F 24.8 °F 46% 30.35 in 10.0 mi ESE 10.4 mph - N/A   Scattered Clouds
2:13 PM 44.6 °F 39.2 °F 24.8 °F 46% 30.34 in 10.0 mi ESE 10.4 mph - N/A   Scattered Clouds
2:34 PM 44.6 °F 38.8 °F 24.8 °F 46% 30.33 in 10.0 mi ESE 11.5 mph - N/A   Mostly Cloudy
2:53 PM 46.4 °F 41.9 °F 26.6 °F 46% 30.33 in 10.0 mi ESE 9.2 mph - N/A   Scattered Clouds
3:13 PM 44.6 °F 39.7 °F 26.6 °F 49% 30.32 in 10.0 mi ESE 9.2 mph - N/A   Clear
3:34 PM 46.4 °F 41.5 °F 26.6 °F 46% 30.31 in 10.0 mi ESE 10.4 mph - N/A   Clear
4:13 PM 44.6 °F 39.2 °F 28.4 °F 53% 30.29 in 10.0 mi East 10.4 mph - N/A   Clear
4:33 PM 44.6 °F 39.2 °F 26.6 °F 49% 30.28 in 10.0 mi East 10.4 mph - N/A   Clear
4:53 PM 44.6 °F 38.4 °F 28.4 °F 53% 30.27 in 10.0 mi East 12.7 mph - N/A   Clear
5:13 PM 44.6 °F 38.8 °F 28.4 °F 53% 30.26 in 10.0 mi East 11.5 mph - N/A   Clear
5:33 PM 44.6 °F 39.2 °F 26.6 °F 49% 30.25 in 10.0 mi East 10.4 mph 16.1 mph N/A   Clear
5:53 PM 44.6 °F 38.4 °F 26.6 °F 49% 30.26 in 10.0 mi East 12.7 mph 16.1 mph N/A   Clear
6:13 PM 44.6 °F 38.4 °F 26.6 °F 49% 30.24 in 10.0 mi East 12.7 mph 16.1 mph N/A   Clear
6:33 PM 44.6 °F 38.8 °F 26.6 °F 49% 30.23 in 10.0 mi East 11.5 mph 16.1 mph N/A   Clear
6:53 PM 44.6 °F 38.8 °F 26.6 °F 49% 30.23 in 10.0 mi East 11.5 mph 19.6 mph N/A   Clear
7:13 PM 44.6 °F 38.4 °F 24.8 °F 46% 30.22 in 10.0 mi East 12.7 mph 19.6 mph N/A   Clear
7:33 PM 42.8 °F 37.0 °F 24.8 °F 49% 30.21 in 10.0 mi East 10.4 mph 16.1 mph N/A   Clear
7:53 PM 42.8 °F 37.5 °F 24.8 °F 49% 30.22 in 10.0 mi East 9.2 mph - N/A   Clear
8:13 PM 42.8 °F 38.0 °F 24.8 °F 49% 30.21 in 10.0 mi East 8.1 mph - N/A   Clear
8:33 PM 42.8 °F 38.0 °F 24.8 °F 49% 30.22 in 10.0 mi East 8.1 mph - N/A   Clear
8:53 PM 42.8 °F 39.3 °F 24.8 °F 49% 30.23 in 10.0 mi East 5.8 mph - N/A   Clear
9:13 PM 42.8 °F 38.0 °F 26.6 °F 53% 30.23 in 10.0 mi ENE 8.1 mph - N/A   Clear
9:33 PM 42.8 °F 38.0 °F 26.6 °F 53% 30.23 in 10.0 mi ENE 8.1 mph - N/A   Clear
10:14 PM 42.8 °F 37.0 °F 26.6 °F 53% 30.21 in 10.0 mi East 10.4 mph - N/A   Clear
10:33 PM 42.8 °F 36.6 °F 24.8 °F 49% 30.21 in 10.0 mi East 11.5 mph 16.1 mph N/A   Clear
10:53 PM 42.8 °F 38.0 °F 26.6 °F 53% 30.20 in 10.0 mi East 8.1 mph - N/A   Clear
11:13 PM 42.8 °F 37.5 °F 26.6 °F 53% 30.20 in 10.0 mi East 9.2 mph - N/A   Clear
11:33 PM 42.8 °F 36.6 °F 26.6 °F 53% 30.19 in 10.0 mi East 11.5 mph 17.3 mph N/A   Clear
11:53 PM 42.8 °F 36.2 °F 26.6 °F 53% 30.18 in 10.0 mi East 12.7 mph 20.7 mph N/A   Clear